QPF
0.01 0.00 0.00 0.00 0.00 0.00 0.00 0.00 0.00 0.00 0.00 0.00 0.01 0.01 0.00 0.00 0.00 0.00 0.00 0.00 0.01 0.00 0.00 0.00 0.00 0.00 0.00 0.01 0.00 0.00 0.00 0.00 0.00
0.00 0.00 0.00 0.00 0.00 0.00 0.00 0.00 0.00 0.00 0.00 0.00 0.01 0.01 0.00 0.00 0.00 0.00 0.00 0.00 0.00 0.00 0.00 0.00 0.00 0.00 0.00 0.01 0.01 0.00 0.00 0.00 0.00
0.00 0.00 0.00 0.00 0.00 0.00 0.01 0.02 0.01 0.00 0.00 0.00 0.00 0.01 0.01 0.01 0.00 0.00 0.00 0.01 0.00 0.00 0.00 0.00 0.00 0.00 0.00 0.00 0.00 0.00 0.00 0.00 0.00
0.00 0.00 0.00 0.00 0.00 0.00 0.02 0.04 0.02 0.01 0.00 0.00 0.01 0.01 0.00 0.01 0.00 0.00 0.00 0.00 0.01 0.01 0.00 0.00 0.00 0.00 0.00 0.00 0.00 0.00 0.00 0.00 0.00
0.00 0.00 0.00 0.00 0.00 0.02 0.03 0.02 0.02 0.01 0.00 0.00 0.01 0.01 0.00 0.01 0.00 0.00 0.00 0.01 0.01 0.01 0.00 0.00 0.01 0.00 0.00 0.00 0.00 0.00 0.00 0.00 0.00
0.00 0.00 0.00 0.00 0.01 0.01 0.01 0.00 0.00 0.00 0.00 0.00 0.00 0.01 0.03 0.01 0.00 0.00 0.00 0.00 0.00 0.01 0.00 0.00 0.01 0.01 0.00 0.00 0.01 0.00 0.00 0.00 0.00
0.00 0.00 0.00 0.00 0.00 0.00 0.00 0.00 0.00 0.00 0.00 0.00 0.00 0.02 0.01 0.02 0.01 0.00 0.00 0.00 0.00 0.00 0.00 0.00 0.01 0.01 0.00 0.00 0.00 0.01 0.01 0.00 0.00
0.00 0.00 0.00 0.00 0.00 0.00 0.00 0.00 0.00 0.00 0.00 0.00 0.01 0.01 0.00 0.03 0.01 0.01 0.01 0.00 0.00 0.00 0.00 0.00 0.00 0.00 0.00 0.00 0.00 0.00 0.00 0.00 0.00
0.00 0.00 0.00 0.00 0.00 0.00 0.00 0.00 0.00 0.00 0.00 0.00 0.00 0.00 0.00 0.01 0.01 0.01 0.02 0.02 0.00 0.00 0.00 0.00 0.00 0.00 0.00 0.00 0.00 0.00 0.00 0.00 0.00
0.00 0.00 0.00 0.00 0.00 0.00 0.00 0.00 0.00 0.00 0.00 0.00 0.00 0.00 0.00 0.00 0.00 0.00 0.00 0.03 0.03 0.03 0.03 0.02 0.01 0.00 0.00 0.00 0.00 0.00 0.00 0.00 0.01
0.00 0.00 0.00 0.00 0.00 0.00 0.00 0.00 0.00 0.00 0.00 0.00 0.00 0.00 0.00 0.00 0.00 0.00 0.00 0.00 0.02 0.02 0.00 0.00 0.01 0.01 0.00 0.00 0.00 0.00 0.00 0.00 0.01
0.00 0.00 0.00 0.00 0.00 0.00 0.00 0.00 0.00 0.00 0.00 0.00 0.00 0.00 0.00 0.00 0.00 0.00 0.00 0.00 0.00 0.00 0.00 0.00 0.00 0.00 0.00 0.00 0.00 0.01 0.01 0.00 0.00
0.00 0.00 0.00 0.00 0.00 0.00 0.00 0.00 0.00 0.00 0.00 0.00 0.00 0.00 0.00 0.00 0.00 0.00 0.00 0.00 0.00 0.00 0.00 0.00 0.00 0.00 0.00 0.00 0.00 0.01 0.01 0.00 0.00
0.00 0.00 0.00 0.00 0.00 0.00 0.00 0.00 0.00 0.00 0.00 0.00 0.00 0.00 0.00 0.00 0.00 0.00 0.00 0.00 0.00 0.00 0.00 0.00 0.00 0.01 0.00 0.00 0.00 0.00 0.00 0.00 0.00
0.00 0.00 0.00 0.00 0.00 0.00 0.00 0.00 0.00 0.00 0.00 0.00 0.00 0.00 0.00 0.00 0.00 0.00 0.00 0.00 0.00 0.00 0.00 0.00 0.00 0.00 0.01 0.00 0.00 0.00 0.01 0.00 0.00
0.00 0.00 0.00 0.00 0.00 0.00 0.00 0.00 0.00 0.00 0.00 0.00 0.00 0.00 0.00 0.00 0.00 0.00 0.00 0.00 0.00 0.00 0.00 0.00 0.00 0.00 0.00 0.00 0.01 0.01 0.01 0.00 0.00
0.00 0.00 0.00 0.00 0.00 0.00 0.00 0.00 0.00 0.00 0.00 0.00 0.00 0.00 0.00 0.00 0.00 0.00 0.00 0.00 0.00 0.00 0.00 0.00 0.00 0.00 0.00 0.00 0.00 0.00 0.00 0.00 0.01
0.00 0.00 0.00 0.00 0.00 0.00 0.00 0.00 0.00 0.00 0.00 0.00 0.00 0.00 0.00 0.00 0.00 0.00 0.00 0.00 0.00 0.00 0.00 0.00 0.00 0.00 0.00 0.00 0.00 0.00 0.00 0.00 0.00
0.00 0.00 0.00 0.00 0.00 0.00 0.00 0.00 0.00 0.00 0.00 0.00 0.00 0.00 0.00 0.00 0.00 0.00 0.00 0.00 0.00 0.00 0.00 0.00 0.00 0.00 0.00 0.00 0.00 0.00 0.00 0.00 0.00
0.00 0.00 0.00 0.00 0.00 0.00 0.00 0.00 0.00 0.00 0.00 0.00 0.00 0.00 0.00 0.00 0.00 0.00 0.00 0.00 0.00 0.00 0.00 0.00 0.00 0.00 0.00 0.00 0.00 0.00 0.00 0.00 0.00
MSLP
1014.27 1014.61 1014.79 1014.99 1015.33 1015.73 1016.03 1016.40 1016.70 1016.93 1017.11 1017.25 1017.23 1017.17 1017.10 1016.81 1016.98 1017.50 1017.89 1018.18 1018.16 1018.28 1018.33 1018.35 1018.37 1018.27 1018.16 1018.16 1018.23 1018.24 1018.22 1018.23 1018.15
1014.61 1014.99 1015.22 1015.40 1015.67 1016.04 1016.35 1016.70 1016.97 1017.22 1017.49 1017.60 1017.64 1017.54 1017.49 1017.69 1018.16 1018.29 1018.57 1018.75 1018.76 1018.75 1018.80 1018.91 1018.89 1018.85 1018.86 1018.73 1018.80 1018.82 1018.86 1018.79 1018.69
1014.76 1015.27 1015.52 1015.78 1015.94 1016.27 1016.61 1016.95 1017.28 1017.55 1017.84 1018.01 1018.02 1017.87 1017.84 1018.20 1018.41 1018.77 1019.09 1019.23 1019.28 1019.28 1019.39 1019.49 1019.50 1019.47 1019.43 1019.41 1019.45 1019.45 1019.40 1019.31 1019.24
1014.91 1015.49 1015.79 1016.06 1016.24 1016.45 1016.86 1017.17 1017.62 1017.92 1018.19 1018.37 1018.31 1018.37 1018.24 1018.47 1018.89 1019.22 1019.57 1019.73 1019.73 1019.86 1019.96 1020.01 1020.04 1020.03 1020.03 1020.04 1019.98 1020.09 1020.04 1019.89 1019.88
1015.23 1015.74 1016.04 1016.25 1016.55 1016.71 1017.18 1017.51 1017.95 1018.29 1018.48 1018.71 1018.75 1018.61 1018.50 1018.98 1019.42 1019.80 1020.19 1020.29 1020.30 1020.45 1020.54 1020.55 1020.54 1020.54 1020.54 1020.59 1020.63 1020.65 1020.56 1020.56 1020.48
1015.51 1015.68 1016.23 1016.44 1016.84 1017.09 1017.44 1017.95 1018.38 1018.73 1018.86 1019.01 1019.06 1019.02 1018.84 1019.34 1019.98 1020.39 1020.75 1020.76 1020.89 1021.03 1021.07 1021.13 1021.08 1021.19 1021.16 1021.20 1021.14 1021.16 1021.18 1021.13 1021.07
1014.87 1016.13 1016.53 1016.68 1017.16 1017.55 1017.82 1018.21 1018.64 1018.87 1018.75 1019.25 1019.32 1019.27 1019.27 1020.03 1020.41 1020.79 1020.98 1021.13 1021.32 1021.54 1021.57 1021.68 1021.65 1021.72 1021.79 1021.80 1021.67 1021.65 1021.68 1021.66 1021.67
1015.05 1016.27 1016.66 1016.94 1017.19 1017.77 1018.09 1018.13 1018.43 1018.77 1018.79 1018.82 1019.20 1019.16 1019.69 1020.55 1020.81 1021.24 1021.30 1021.42 1021.64 1021.81 1021.90 1022.08 1022.18 1022.26 1022.27 1022.24 1022.25 1022.19 1022.25 1022.13 1022.11
1014.67 1015.66 1016.09 1016.48 1016.87 1017.79 1018.13 1018.13 1018.13 1018.54 1019.01 1019.12 1019.41 1019.55 1020.09 1020.96 1021.35 1021.79 1021.74 1021.74 1021.86 1022.03 1022.19 1022.38 1022.51 1022.71 1022.81 1022.72 1022.68 1022.72 1022.73 1022.64 1022.57
1014.36 1015.10 1015.61 1016.00 1016.30 1017.30 1017.98 1018.10 1018.16 1018.53 1018.58 1019.05 1019.62 1019.86 1020.36 1020.96 1021.69 1022.05 1022.32 1022.30 1022.24 1022.32 1022.53 1022.68 1022.85 1023.04 1023.15 1023.23 1023.13 1023.12 1023.14 1023.10 1023.05
1013.97 1014.85 1015.25 1015.66 1016.10 1016.73 1017.29 1017.67 1018.13 1018.62 1018.83 1019.07 1019.44 1019.95 1020.34 1020.78 1021.55 1022.28 1022.73 1022.86 1022.88 1022.71 1022.88 1023.05 1023.20 1023.34 1023.49 1023.62 1023.51 1023.47 1023.52 1023.59 1023.57
1013.56 1014.59 1015.04 1015.48 1016.17 1016.79 1017.43 1017.88 1018.20 1018.62 1018.97 1019.69 1020.01 1020.00 1020.33 1020.80 1021.42 1022.21 1022.69 1023.02 1023.31 1023.34 1023.31 1023.49 1023.65 1023.74 1023.85 1023.90 1023.92 1023.87 1023.93 1024.05 1024.07
1013.22 1014.14 1014.94 1015.52 1016.14 1016.73 1017.32 1017.90 1018.30 1018.81 1019.23 1020.21 1020.54 1020.55 1020.96 1021.19 1021.75 1022.12 1022.40 1022.67 1023.26 1023.69 1023.68 1024.09 1024.00 1024.04 1024.07 1024.19 1024.31 1024.30 1024.42 1024.47 1024.51
1012.90 1013.79 1014.68 1015.51 1016.05 1016.70 1017.30 1017.96 1018.34 1018.87 1019.38 1020.54 1020.93 1021.02 1021.33 1021.63 1022.03 1022.20 1022.63 1023.12 1023.48 1023.80 1024.40 1024.44 1024.34 1024.31 1024.42 1024.59 1024.66 1024.68 1024.83 1024.87 1024.89
1012.65 1013.45 1014.47 1015.46 1016.04 1016.69 1017.29 1017.83 1018.36 1018.84 1019.42 1020.44 1020.79 1021.18 1021.38 1021.87 1022.17 1022.58 1022.95 1023.29 1023.50 1023.91 1024.33 1024.49 1024.66 1024.67 1024.70 1024.71 1024.88 1024.94 1025.06 1025.16 1025.22
1012.30 1013.28 1014.34 1015.22 1015.86 1016.44 1017.13 1017.74 1018.32 1018.86 1019.51 1020.16 1020.93 1021.66 1021.88 1022.09 1022.33 1022.79 1023.15 1023.54 1023.68 1023.88 1024.03 1024.20 1024.56 1024.90 1025.13 1025.01 1025.05 1025.16 1025.27 1025.36 1025.49
1012.07 1013.07 1014.01 1014.81 1015.66 1016.35 1016.92 1017.55 1018.33 1019.07 1019.69 1020.10 1020.74 1021.46 1022.21 1022.20 1022.48 1022.75 1023.00 1023.51 1023.82 1024.06 1024.14 1024.14 1024.23 1024.72 1024.86 1025.32 1025.44 1025.42 1025.49 1025.59 1025.73
1011.81 1012.84 1013.75 1014.42 1015.21 1016.02 1016.76 1017.46 1018.18 1019.16 1019.64 1019.82 1019.76 1020.55 1020.75 1021.88 1022.55 1022.85 1023.10 1023.44 1023.73 1024.00 1024.19 1024.33 1024.45 1024.51 1024.89 1025.35 1025.59 1025.64 1025.65 1025.77 1025.85
1011.36 1012.45 1013.38 1014.03 1014.73 1015.64 1016.56 1017.33 1018.01 1018.79 1019.12 1019.44 1019.72 1019.99 1019.76 1020.72 1022.00 1022.61 1022.88 1023.24 1023.49 1023.76 1024.06 1024.27 1024.50 1024.57 1024.85 1025.21 1025.45 1025.72 1025.86 1025.87 1025.99
1011.01 1012.02 1013.00 1013.81 1014.36 1015.27 1016.13 1017.11 1017.74 1018.43 1018.94 1019.15 1019.74 1020.17 1020.12 1020.09 1020.81 1021.83 1022.56 1023.11 1023.38 1023.57 1023.82 1024.05 1024.33 1024.52 1024.69 1025.09 1025.47 1025.75 1025.97 1026.08 1026.10
Thickness
5714 5715 5717 5719 5719 5719 5719 5719 5719 5719 5719 5718 5720 5721 5722 5725 5724 5720 5716 5714 5713 5711 5710 5708 5706 5705 5704 5702 5699 5697 5694 5692 5690
5709 5710 5711 5714 5716 5715 5716 5715 5716 5717 5715 5716 5716 5718 5720 5719 5716 5714 5712 5710 5709 5709 5707 5704 5703 5701 5699 5699 5696 5694 5691 5689 5687
5707 5706 5707 5709 5712 5712 5712 5712 5713 5713 5712 5712 5713 5715 5717 5714 5713 5711 5709 5707 5706 5706 5703 5701 5699 5697 5696 5695 5692 5690 5688 5686 5684
5704 5702 5703 5704 5707 5710 5709 5710 5709 5709 5709 5709 5710 5711 5713 5712 5709 5708 5705 5704 5703 5702 5700 5697 5696 5694 5693 5691 5690 5687 5684 5683 5680
5700 5698 5699 5701 5702 5706 5705 5706 5705 5705 5706 5706 5706 5708 5711 5708 5705 5703 5700 5699 5699 5697 5696 5694 5693 5691 5690 5688 5686 5683 5681 5679 5677
5694 5696 5696 5698 5699 5701 5701 5700 5700 5700 5702 5702 5703 5705 5707 5704 5701 5698 5696 5695 5695 5693 5692 5690 5690 5687 5686 5685 5683 5681 5678 5676 5674
5696 5691 5692 5695 5694 5695 5696 5696 5696 5696 5699 5698 5700 5702 5703 5699 5697 5695 5694 5693 5691 5689 5688 5687 5686 5684 5682 5681 5680 5678 5675 5673 5670
5693 5686 5688 5690 5692 5690 5691 5694 5694 5694 5697 5699 5699 5702 5699 5694 5693 5691 5691 5690 5689 5687 5686 5684 5682 5681 5679 5678 5677 5675 5673 5671 5668
5693 5687 5688 5690 5690 5688 5688 5692 5694 5694 5694 5696 5697 5697 5695 5690 5688 5687 5687 5688 5686 5685 5684 5681 5680 5678 5676 5675 5674 5672 5670 5668 5667
5691 5687 5688 5690 5692 5688 5686 5689 5692 5692 5694 5694 5694 5694 5692 5689 5685 5684 5683 5683 5683 5682 5681 5679 5677 5675 5674 5672 5671 5670 5668 5667 5665
5690 5685 5687 5689 5690 5688 5688 5689 5689 5689 5690 5692 5693 5692 5690 5688 5684 5681 5679 5679 5678 5678 5677 5676 5674 5673 5671 5670 5670 5668 5666 5664 5663
5688 5684 5685 5686 5685 5684 5684 5684 5686 5687 5687 5686 5687 5690 5689 5687 5683 5680 5677 5676 5674 5673 5673 5672 5671 5670 5669 5668 5667 5666 5664 5662 5660
5686 5684 5681 5682 5682 5682 5682 5682 5683 5683 5685 5680 5681 5683 5683 5682 5680 5678 5678 5676 5672 5670 5670 5667 5668 5668 5668 5666 5665 5664 5662 5660 5658
5682 5681 5678 5676 5679 5679 5679 5679 5680 5680 5681 5675 5675 5678 5678 5677 5675 5676 5674 5672 5670 5667 5663 5664 5665 5665 5665 5663 5662 5661 5660 5658 5657
5677 5677 5675 5672 5675 5675 5676 5676 5678 5678 5678 5673 5674 5674 5675 5673 5673 5671 5669 5668 5668 5665 5662 5662 5661 5662 5662 5662 5660 5660 5658 5657 5655
5673 5673 5670 5670 5671 5673 5674 5674 5674 5675 5675 5672 5669 5667 5668 5669 5669 5667 5666 5664 5664 5663 5662 5662 5660 5659 5658 5659 5659 5658 5657 5655 5653
5667 5668 5667 5669 5668 5669 5671 5671 5670 5669 5669 5667 5664 5659 5660 5665 5666 5665 5665 5662 5661 5660 5660 5660 5660 5658 5657 5656 5656 5655 5654 5654 5652
5662 5663 5663 5665 5666 5665 5667 5667 5667 5662 5664 5668 5670 5663 5665 5661 5661 5661 5662 5661 5659 5658 5658 5657 5657 5657 5656 5654 5654 5653 5653 5651 5651
5661 5659 5659 5662 5664 5664 5663 5662 5662 5661 5662 5665 5669 5669 5675 5666 5656 5660 5660 5660 5659 5657 5656 5655 5654 5655 5654 5653 5653 5651 5650 5649 5648
5655 5655 5654 5655 5660 5660 5660 5658 5658 5658 5659 5662 5660 5662 5666 5672 5664 5656 5657 5656 5656 5655 5654 5654 5653 5653 5652 5650 5650 5649 5647 5646 5645